Theta_e
302 302 302 302 301 301 301 300 301 299 298 297 296 296 296 296 297 292 286 287 285 279 278 279 280 274 273 277 273 274 272 269 267 265 263 264 265 269 270 272 270 269 267 267 268 262 260 274 273 267 269 271 268 267
303 303 302 302 302 301 301 300 300 299 298 297 296 296 296 295 297 294 286 288 291 283 278 281 283 283 281 282 279 278 274 271 272 266 268 268 263 269 268 265 274 268 270 269 270 269 274 274 271 273 271 269 271 272
303 303 303 303 302 302 301 301 300 300 298 297 296 295 295 295 296 295 288 287 286 279 276 274 274 279 287 286 287 277 272 277 274 277 272 272 267 275 267 267 269 273 274 273 273 273 272 273 273 272 271 273 273 273
302 302 303 302 302 302 302 300 300 300 298 297 296 295 295 295 296 295 288 288 286 279 273 271 281 281 284 286 285 284 281 280 278 276 273 271 268 278 273 272 269 271 272 269 272 272 272 273 272 271 272 272 272 272
300 300 301 302 301 301 301 301 300 300 298 297 295 294 294 295 296 292 289 289 289 280 268 271 274 275 278 281 281 281 279 277 272 270 270 268 277 276 273 269 266 270 269 268 268 271 270 272 271 271 271 270 271 270
296 296 298 298 299 301 301 301 300 299 297 296 295 294 294 295 293 284 277 285 290 288 277 270 271 268 265 270 274 273 273 275 275 271 271 273 280 278 265 259 269 270 272 272 269 270 271 272 272 270 269 270 270 269
294 295 295 295 297 297 299 300 300 299 297 296 294 294 294 295 290 282 276 282 291 287 278 269 265 270 265 264 268 276 273 277 276 269 268 272 275 275 265 261 269 270 269 269 269 268 269 269 268 268 268 268 268 265
293 293 293 294 295 295 297 297 299 299 297 295 294 293 294 293 291 287 290 293 290 281 274 263 266 266 268 263 264 260 273 267 270 266 266 265 269 267 260 268 270 269 269 267 267 266 268 268 267 266 265 265 264 265
291 292 292 293 294 295 295 296 296 298 296 294 293 292 288 285 282 284 292 292 288 280 269 263 260 262 268 262 262 261 260 267 259 258 258 261 258 261 267 268 269 268 267 267 265 263 263 263 262 261 259 259 259 262
291 291 291 292 292 293 294 295 296 297 294 292 286 282 278 280 290 289 285 277 279 276 274 265 262 266 268 262 257 257 255 255 259 259 257 256 260 262 267 265 268 268 266 264 263 263 259 259 257 257 257 255 255 255
289 291 291 291 291 291 293 294 296 294 292 283 279 277 281 288 280 276 272 270 267 265 266 262 264 262 267 264 261 262 258 251 255 259 258 252 258 265 264 261 259 260 261 260 257 255 254 256 255 253 255 252 250 250
288 290 290 291 291 291 292 293 294 287 284 283 282 285 280 277 275 270 265 263 261 266 259 263 263 265 262 264 263 257 256 255 257 250 255 255 264 261 260 259 257 253 251 252 250 254 254 256 253 252 253 254 252 249
288 289 289 290 292 292 291 293 294 290 289 284 279 277 272 269 265 262 261 262 258 258 260 261 260 262 262 263 257 257 257 257 253 253 256 261 261 258 257 252 251 245 245 247 250 247 247 249 247 248 253 252 249 248
288 289 290 290 291 292 291 293 293 290 282 275 272 267 266 260 262 263 263 262 263 260 259 259 257 260 256 258 254 257 254 252 252 252 256 258 257 257 254 248 252 254 250 251 251 249 249 248 250 248 250 250 248 251
289 290 289 289 290 292 291 292 292 285 279 273 270 262 262 262 258 258 254 258 261 260 262 261 260 263 255 257 255 255 258 255 255 258 259 260 255 252 252 249 251 251 250 249 248 248 250 249 247 252 251 246 245 249
289 288 285 289 290 291 291 292 284 282 276 273 266 261 257 261 260 259 256 259 259 263 259 261 255 258 258 259 257 255 258 259 261 257 260 254 252 252 254 251 252 250 251 250 247 246 247 247 249 253 250 252 251 247
287 275 287 287 288 290 291 281 280 276 274 271 264 260 266 263 267 265 263 264 264 262 261 257 258 259 261 258 255 255 260 265 266 262 253 256 255 254 252 250 249 248 249 248 247 247 248 245 242 245 254 253 248 249
276 277 285 286 286 285 277 278 275 273 270 263 264 264 264 265 265 261 258 261 265 261 260 261 262 257 257 256 257 261 262 265 265 261 256 253 250 250 252 255 250 252 250 248 248 249 246 246 248 255 250 249 250 252
279 280 285 286 286 279 274 272 273 268 260 260 263 265 264 263 261 260 261 262 260 260 264 260 258 256 259 259 259 259 259 262 266 265 257 251 250 250 250 249 252 253 251 250 249 252 251 250 253 252 249 247 251 254
284 284 285 285 285 274 270 268 267 268 263 263 265 265 263 263 262 260 261 263 264 264 264 260 260 259 261 261 261 265 266 264 262 265 263 258 252 249 252 253 256 251 250 249 248 249 248 252 249 247 246 248 248 254
282 281 284 284 272 270 268 267 265 265 263 264 264 265 261 263 261 261 262 263 264 261 261 259 256 256 254 256 258 260 262 263 262 266 264 263 255 254 252 249 248 248 252 250 252 254 249 249 251 250 246 249 251 252
280 285 276 276 269 267 264 264 265 264 263 262 264 264 262 260 259 259 260 261 262 261 258 253 255 256 255 256 255 256 259 261 263 263 262 259 256 255 255 252 252 254 250 251 248 250 251 250 248 248 246 252 254 256
283 278 273 272 267 265 261 265 264 263 263 262 262 261 258 257 256 258 257 255 258 253 251 252 252 250 252 252 252 255 259 263 266 262 258 254 250 247 248 247 248 252 253 251 245 246 249 250 250 250 252 254 256 258
276 269 266 265 265 260 263 261 262 262 263 262 260 255 255 255 257 255 254 250 252 251 252 251 248 253 253 253 254 255 258 260 260 258 255 254 252 250 244 246 244 244 246 246 245 246 246 248 251 252 255 256 258 259
268 264 265 261 261 262 260 259 258 261 259 258 258 255 254 252 251 251 252 252 250 248 248 249 251 252 253 251 253 256 256 257 259 258 253 245 246 247 250 247 246 245 243 247 249 248 252 252 254 256 258 258 258 258
261 258 261 258 258 261 260 260 261 259 259 258 254 252 250 250 252 254 251 250 247 245 246 247 248 251 252 251 255 258 257 254 251 254 251 245 247 251 252 253 251 253 243 243 245 249 252 254 256 256 257 259 259 258
259 253 252 254 258 258 257 258 258 261 259 257 253 254 251 251 252 253 251 247 247 245 244 245 250 252 250 254 258 257 253 249 247 249 244 242 242 243 248 252 252 251 244 244 246 247 250 252 254 256 257 259 259 259
254 254 258 256 256 257 259 259 260 257 256 252 255 252 253 254 255 251 248 247 243 243 246 245 249 252 251 256 255 257 252 246 246 245 245 245 243 243 243 243 243 256 247 248 249 252 253 254 255 257 258 258 259 260
252 253 258 258 259 256 252 254 253 250 251 249 253 251 253 249 247 243 246 245 244 245 248 250 254 254 255 254 256 254 249 246 254 256 253 253 253 255 247 246 247 248 249 250 256 261 262 263 262 261 260 260 260 260
253 251 255 253 255 251 248 245 247 246 245 246 247 249 249 248 245 244 245 245 246 246 248 250 254 256 255 254 256 255 249 243 242 250 254 253 253 249 247 248 249 250 251 252 256 258 262 260 260 259 260 260 262 262
250 252 252 250 247 247 246 245 246 245 243 244 242 249 245 244 246 247 245 246 246 248 251 254 255 255 255 255 256 256 253 248 243 243 242 242 244 246 248 249 250 250 252 254 257 258 258 258 259 259 260 260 261 263
251 248 253 250 250 248 244 241 241 243 243 247 246 242 244 246 248 249 250 250 252 252 253 254 255 253 252 251 249 246 248 245 246 246 246 247 249 250 251 252 252 253 255 257 258 258 257 258 258 259 260 260 261 263
246 244 244 246 247 248 245 247 247 248 246 245 246 243 247 250 249 247 251 249 249 250 250 250 251 251 250 249 247 244 245 243 245 253 255 258 257 258 259 256 256 257 257 257 258 258 258 258 259 260 261 261 262 265
Wind_Speed
26 25 26 25 24 24 21 22 20 15 17 15 16 17 16 17 17 4 2 5 3 4 9 8 5 5 4 5 4 7 7 5 5 6 3 4 3 4 4 3 6 3 4 3 2 4 3 15 3 6 3 5 4 3
27 27 26 26 25 24 23 23 22 17 18 17 16 18 17 16 18 5 3 3 4 4 7 6 10 12 11 13 7 2 3 2 2 3 3 3 4 4 3 4 4 4 3 4 4 2 3 3 3 3 4 4 5 7
26 26 27 27 27 27 26 25 23 20 18 18 16 18 16 17 18 7 3 3 1 2 6 3 6 4 4 7 4 3 2 2 2 2 2 3 5 2 3 3 3 4 5 1 4 2 2 3 0 2 4 6 9 9
26 27 26 27 27 27 27 26 25 22 20 18 16 18 16 17 17 7 3 4 2 2 4 8 1 5 1 5 6 4 2 2 2 2 3 3 3 2 2 2 1 2 6 4 2 2 1 3 8 9 9 6 8 8
27 26 28 28 25 26 27 27 25 23 20 17 16 17 15 18 21 6 2 5 5 3 4 6 3 3 2 3 7 6 7 4 1 2 3 4 3 1 1 3 2 1 1 0 1 2 2 3 6 10 8 9 8 8
28 29 27 28 29 28 26 26 25 23 21 18 16 18 16 16 3 4 4 2 4 4 1 5 3 3 4 3 2 3 3 3 3 3 3 3 3 2 1 3 2 2 1 2 2 2 3 6 1 7 5 8 7 6
29 29 29 28 28 27 28 26 26 25 23 19 16 17 15 13 3 3 6 4 10 3 2 5 6 3 1 2 2 1 3 2 2 2 2 2 2 2 2 3 4 4 3 3 1 2 1 2 2 6 4 4 3 2
29 29 29 29 28 29 26 25 27 25 22 18 15 14 13 7 4 5 5 11 9 3 3 2 6 5 3 2 2 2 0 3 1 2 3 1 4 2 3 4 4 3 5 2 0 2 1 1 1 3 3 4 5 5
30 29 29 29 28 27 26 26 26 23 21 15 12 6 3 1 2 1 5 8 2 3 3 3 4 5 2 1 1 4 2 1 1 1 2 3 3 5 7 5 6 6 6 6 2 1 1 2 3 2 3 4 2 4
31 31 29 28 29 27 27 27 27 22 19 14 5 2 3 3 1 5 4 1 2 0 1 4 1 3 3 2 3 2 1 1 2 4 2 2 6 4 4 5 5 6 6 6 4 1 1 2 2 3 3 3 3 4
34 32 30 29 28 27 27 26 18 21 16 2 4 3 2 3 2 1 3 3 1 3 3 3 5 3 2 2 3 1 2 1 2 5 3 3 6 5 6 6 3 4 4 6 1 1 1 4 4 3 5 4 4 4
33 33 31 30 28 26 25 27 18 10 4 8 7 5 3 2 2 3 4 2 3 7 2 4 4 4 0 3 3 2 2 3 5 1 4 5 6 3 6 6 5 5 4 3 4 4 2 3 4 4 5 6 5 4
34 32 34 32 29 24 24 28 27 15 18 4 3 4 4 1 3 8 9 4 2 4 5 3 2 3 2 3 3 3 2 5 1 4 6 7 4 3 5 3 2 1 2 2 1 2 2 5 2 4 6 6 4 6
34 35 31 28 26 26 21 24 28 22 5 3 7 6 6 4 7 7 5 5 4 4 4 3 2 3 1 4 1 3 3 3 4 2 7 4 5 5 3 1 4 6 6 4 4 3 5 5 5 5 6 5 4 8
32 26 22 18 23 26 20 22 30 6 3 5 6 7 7 3 1 1 1 1 2 3 4 4 4 3 2 4 1 2 3 4 6 6 5 5 5 3 3 3 5 5 4 4 3 3 5 4 4 7 5 4 5 7
22 17 8 12 22 20 21 16 7 3 2 4 4 4 1 3 1 2 3 2 3 3 2 4 4 4 2 4 2 6 5 6 5 5 5 2 3 4 5 5 4 3 5 4 2 2 3 4 5 7 7 7 6 4
20 2 8 17 20 26 11 4 3 4 5 4 3 1 4 2 3 3 4 4 4 4 3 4 5 7 2 2 3 5 6 4 4 5 3 4 5 5 4 4 5 4 3 3 2 3 4 3 2 3 7 4 3 5
7 6 15 16 16 4 2 3 4 4 4 2 3 4 2 2 3 2 2 3 4 3 4 5 6 3 5 5 5 5 4 4 3 3 4 3 4 4 4 6 5 5 4 3 4 3 3 3 4 5 4 4 7 6
10 8 16 16 14 3 1 3 2 4 1 1 2 2 3 3 2 2 2 2 1 2 5 3 5 4 5 5 4 3 3 2 3 3 3 4 3 4 4 2 3 3 3 3 2 3 3 5 5 3 3 2 5 7
24 22 22 18 4 1 2 2 0 5 3 2 2 3 3 3 2 2 2 2 2 2 2 2 6 5 5 4 4 3 2 1 1 3 3 2 1 4 4 4 2 2 1 2 3 2 3 4 1 2 3 4 4 8
17 13 19 12 3 5 3 2 4 3 4 3 1 2 3 1 3 2 2 1 3 2 3 4 4 4 3 3 1 1 2 1 3 3 2 2 1 2 2 1 1 1 1 1 2 4 1 3 4 4 3 5 5 7
6 8 3 2 4 4 4 4 4 3 4 2 2 2 3 2 2 1 0 2 3 3 3 3 2 1 3 3 3 1 3 4 2 1 0 2 3 0 1 3 3 2 2 3 1 2 4 4 4 3 3 8 7 8
12 5 2 1 5 5 2 2 4 3 4 3 1 4 2 2 1 1 0 2 3 1 1 1 3 2 3 4 3 2 3 4 2 2 2 1 2 2 2 1 1 2 2 3 1 3 4 4 5 5 6 7 7 7
7 5 4 3 5 4 2 3 3 4 3 1 3 3 0 2 2 3 2 3 3 3 3 5 3 4 2 3 3 2 4 3 2 2 2 1 2 2 0 0 1 0 1 3 3 3 3 4 6 6 7 7 7 7
5 4 3 5 2 5 5 3 2 3 3 1 4 1 2 1 3 1 3 4 3 3 3 4 2 3 2 2 2 1 3 4 2 1 3 0 2 2 2 1 1 2 3 2 4 4 6 5 5 7 8 7 9 10
6 3 2 3 1 4 4 5 4 4 4 3 2 1 1 3 4 3 4 3 2 1 2 1 1 3 3 1 2 3 4 3 2 1 3 1 0 2 2 3 3 4 2 1 1 5 8 7 8 11 10 10 10 9
5 0 2 2 2 5 5 3 2 2 4 5 4 3 4 4 3 4 1 1 1 3 3 2 2 1 2 3 1 3 3 3 0 2 0 2 1 2 3 3 1 3 1 2 2 3 6 9 9 9 9 8 7 6
3 2 5 1 5 2 6 4 3 2 3 1 4 3 6 7 3 1 2 2 3 3 4 3 3 3 2 2 2 2 2 3 2 2 2 1 1 1 2 2 2 6 3 4 5 6 6 6 8 9 8 8 8 6
4 3 2 6 5 6 5 3 2 1 0 3 5 3 2 2 1 2 3 3 3 2 3 2 1 1 0 2 3 3 3 3 2 4 4 3 5 4 4 3 3 3 4 5 10 9 9 7 7 6 7 6 7 6
2 3 6 4 6 4 3 2 1 2 1 1 2 4 3 2 2 1 3 3 3 2 2 3 3 2 0 1 1 3 4 2 2 3 5 1 4 3 4 5 6 5 5 6 7 7 9 5 5 4 4 4 4 5
1 2 7 6 4 2 3 2 1 0 3 3 2 5 3 3 3 2 2 2 3 2 2 2 3 4 3 3 2 2 3 3 3 1 2 2 3 4 4 4 4 4 5 6 6 6 6 4 5 5 7 8 9 7
5 6 5 6 1 2 3 3 1 4 5 5 4 2 3 4 4 4 5 5 4 4 6 5 3 4 4 2 2 1 1 4 4 3 5 4 4 5 5 4 4 4 5 6 5 5 5 6 5 7 6 7 7 10
4 4 4 5 4 4 4 4 6 3 5 4 3 1 1 3 2 3 1 1 2 2 3 3 3 2 3 4 3 3 4 4 6 8 8 8 8 8 6 3 3 4 5 4 5 5 6 7 7 7 7 8 9 11
Wind_Direction
285 286 289 289 288 285 276 281 274 255 268 277 280 286 293 297 307 294 244 196 181 240 273 213 213 215 281 280 272 300 348 340 349 16 53 303 308 298 347 333 333 8 323 13 5 59 317 342 13 63 274 303 312 315
285 282 276 277 276 277 271 270 266 247 258 267 272 282 286 292 298 268 219 191 216 231 253 218 242 237 220 252 273 231 234 285 274 17 348 326 315 318 352 332 357 27 3 348 7 80 91 11 78 316 321 291 321 335
280 279 279 276 274 268 266 266 257 248 247 257 263 276 283 287 297 257 198 150 166 287 282 354 248 250 188 209 187 261 280 241 296 222 265 274 273 287 337 320 290 356 9 31 208 77 140 62 241 2 317 333 345 354
288 284 280 277 274 272 264 261 258 247 238 247 255 272 279 282 293 245 175 159 152 202 260 278 287 232 242 175 196 241 272 231 229 217 227 243 239 273 284 284 150 252 335 324 45 57 74 120 34 358 342 358 357 353
295 295 299 280 277 277 275 259 258 242 232 238 250 266 274 278 292 267 189 180 184 172 234 276 289 272 33 199 217 232 241 245 217 285 210 236 245 309 48 29 279 289 218 6 277 120 302 327 27 3 354 359 360 360
303 308 300 293 301 285 273 269 250 235 223 226 240 257 267 275 272 85 350 296 151 155 257 292 270 335 350 30 160 211 199 219 220 204 244 274 260 309 111 226 231 171 238 245 277 354 268 304 174 10 347 351 1 14
302 308 306 300 301 295 301 281 246 228 213 215 229 249 256 271 170 164 192 199 161 136 233 297 309 302 156 67 344 236 333 261 212 255 250 270 288 36 117 217 180 198 202 153 11 312 183 36 310 329 325 336 349 321
302 301 299 302 298 298 295 290 284 222 204 206 225 244 267 246 258 227 211 196 135 116 92 219 266 354 22 322 333 352 4 3 0 257 331 9 321 77 265 216 156 159 160 139 22 5 304 221 337 344 344 352 13 11
295 295 296 298 299 302 296 297 301 219 190 191 226 114 67 150 193 212 112 140 106 167 194 144 169 251 3 296 302 358 48 277 295 182 257 78 308 228 220 173 179 178 178 167 117 63 32 129 283 307 352 357 8 334
296 295 290 293 292 296 298 297 309 201 169 168 96 135 208 206 178 130 139 110 212 47 209 210 93 263 78 20 320 19 10 178 256 255 2 102 259 270 225 176 150 159 163 149 134 240 296 300 256 289 255 244 233 265
293 290 288 288 286 288 294 298 295 161 158 100 147 164 164 173 82 137 209 163 249 273 186 228 183 180 295 119 221 77 210 294 28 262 117 306 279 235 166 159 156 141 168 201 192 67 169 167 190 240 298 272 268 283
292 287 286 283 283 279 281 287 190 159 164 159 130 114 97 124 169 165 212 312 180 223 253 166 206 187 277 100 98 322 154 44 246 297 64 286 252 232 161 189 200 186 171 188 203 215 232 235 230 226 265 273 258 246
286 286 287 283 286 273 271 285 184 149 127 99 102 134 127 168 169 189 202 235 233 199 195 173 163 141 51 64 67 79 77 231 359 43 232 234 285 276 201 156 150 137 161 171 247 246 248 255 243 200 263 250 266 277
291 285 273 279 299 276 261 286 172 144 104 139 150 164 180 202 234 194 187 189 225 120 137 129 82 129 193 73 142 101 240 61 17 0 244 269 259 258 191 155 120 204 204 206 235 249 263 257 273 269 247 254 262 273
292 279 282 282 304 276 261 287 170 141 146 156 131 195 205 210 106 142 177 7 234 135 121 79 50 87 360 82 66 91 17 273 203 233 242 254 275 255 199 205 213 196 182 212 223 233 260 271 261 285 263 254 239 270
301 281 259 324 322 287 286 217 143 116 86 143 100 97 296 73 228 198 179 224 189 149 81 58 113 67 262 127 90 223 130 227 250 225 240 276 284 236 194 209 226 179 183 219 229 239 271 271 263 279 303 279 264 249
292 213 307 315 324 318 264 110 106 123 172 155 229 71 144 119 167 164 156 190 145 93 165 120 115 201 86 67 277 194 211 221 229 263 240 213 228 238 211 179 193 189 199 230 237 240 250 256 301 315 298 299 297 270
278 266 301 310 335 309 41 56 97 118 162 171 151 179 156 78 121 138 210 174 133 140 127 194 127 122 185 187 259 237 231 256 229 258 264 256 241 243 196 186 188 191 203 225 228 262 259 295 286 266 285 315 309 281
278 275 281 302 308 222 252 85 50 118 156 172 94 70 79 103 67 57 108 125 140 166 108 51 95 189 227 214 222 268 262 217 276 304 271 259 222 197 185 158 154 176 192 210 213 253 251 238 250 300 285 310 285 290
289 293 298 298 292 86 90 71 141 101 138 148 82 92 67 73 90 69 80 73 86 85 87 160 209 213 189 230 203 216 228 176 133 315 294 279 200 145 184 179 190 141 163 282 273 245 307 314 317 245 250 254 282 296
300 276 275 269 57 68 66 114 66 69 113 83 99 82 87 62 60 76 121 325 67 188 232 209 221 252 259 265 302 354 306 193 207 220 263 286 189 177 151 158 109 107 171 250 284 299 319 262 267 275 280 289 266 266
239 336 94 131 101 88 78 359 96 97 74 112 113 76 96 101 121 88 275 78 222 238 188 181 235 273 334 345 310 336 281 281 249 244 179 124 101 138 242 200 151 231 240 239 191 288 283 266 282 300 296 292 288 287
267 114 79 101 94 65 66 301 84 36 110 163 173 94 50 67 321 308 76 225 263 273 249 237 274 252 239 293 332 324 0 332 329 339 333 53 57 26 74 112 125 130 346 354 195 249 267 307 310 299 298 295 297 302
34 59 66 60 73 101 117 64 65 97 108 109 95 93 112 146 331 51 226 261 260 318 16 340 343 325 345 15 27 354 345 348 43 48 4 69 76 333 333 219 340 326 168 249 258 289 314 299 304 306 299 300 305 305
92 20 73 69 52 112 102 107 78 91 99 124 107 107 230 71 81 114 226 277 332 334 325 322 1 17 93 282 299 357 3 15 8 359 326 209 125 357 346 337 16 238 207 349 344 330 310 307 309 307 311 307 317 324
79 358 53 147 124 110 163 115 145 138 119 100 75 135 58 94 81 229 235 249 260 254 308 358 349 350 6 4 324 354 338 358 339 114 284 211 21 122 99 52 7 300 153 147 278 308 316 319 315 317 315 323 328 324
109 226 319 250 93 110 89 77 76 101 106 144 172 143 96 102 217 254 297 349 41 258 229 233 270 245 233 310 338 15 2 358 117 161 207 74 104 130 133 134 257 270 322 262 260 255 291 305 305 307 314 322 318 315
130 154 120 207 75 5 106 87 110 119 153 203 105 114 132 161 192 289 238 280 237 285 279 250 240 244 263 304 330 341 351 335 321 356 14 26 46 71 29 10 311 311 309 282 272 273 259 271 286 296 311 312 311 316
53 317 97 66 76 57 40 53 120 211 39 111 113 131 146 54 269 319 308 306 302 337 23 10 3 254 39 25 52 33 12 3 45 38 48 4 349 326 31 333 315 315 308 310 308 317 306 298 308 316 305 301 298 298
21 349 88 60 60 48 294 191 258 299 348 119 111 91 63 31 282 246 312 349 21 337 286 281 294 305 59 46 81 47 40 35 56 113 124 171 245 316 317 321 328 324 316 314 317 324 344 339 328 332 347 348 359 3
325 62 76 54 81 265 245 283 261 10 36 47 356 88 142 191 315 290 327 303 278 295 358 13 38 18 31 26 38 42 33 7 1 289 242 298 288 282 296 303 298 298 311 315 325 343 338 335 353 3 16 16 10 21
23 49 103 87 48 302 27 52 31 61 352 46 3 48 33 55 38 333 349 344 10 26 11 12 39 35 9 26 27 85 335 271 306 336 328 289 283 286 286 289 295 305 321 327 336 337 334 358 358 15 16 12 25 39
64 56 61 89 41 17 332 64 25 37 32 45 4 153 117 107 123 280 298 56 29 350 359 353 356 357 357 2 350 300 301 286 298 307 305 302 308 300 302 296 303 322 335 342 340 340 4 19 25 21 26 37 43 52